SB KEPS @ AMSAT $ORB11041.O Orbital Elements 11041.OSCAR
HR AMSAT ORBITAL ELEMENTS FOR OSCAR SATELLITES FROM WA5QGD FORT WORTH,TX February 10, 2011 Send Subscribe/unsubscribe to KEPS at http://www.amsat.org/mailman/listinfo/keps BID: ORB11041.O TO ALL RADIO AMATEURS BT
Satellite: AO-07 Catalog number: 07530 Epoch time: 11041.82313980 Element set: 1 Inclination: 101.3952 deg RA of node: 053.3461 deg Eccentricity: 0.0011735 Arg of perigee: 166.3441 deg Mean anomaly: 193.7946 deg Mean motion: 12.53581184 rev/day Decay rate: -2.7e-07 rev/day^2 Epoch rev: 65835 Checksum: 274
Satellite: FO-29 Catalog number: 24278 Epoch time: 11041.89396483 Element set: 505 Inclination: 098.5252 deg RA of node: 203.1610 deg Eccentricity: 0.0349889 Arg of perigee: 224.5649 deg Mean anomaly: 132.6866 deg Mean motion: 13.52957057 rev/day Decay rate: -3.0e-08 rev/day^2 Epoch rev: 71538 Checksum: 334
Satellite: SO-33 Catalog number: 25509 Epoch time: 11041.87248809 Element set: 901 Inclination: 031.4327 deg RA of node: 238.7157 deg Eccentricity: 0.0354250 Arg of perigee: 217.0024 deg Mean anomaly: 140.5640 deg Mean motion: 14.28363311 rev/day Decay rate: -6.1e-07 rev/day^2 Epoch rev: 64220 Checksum: 263
Satellite: RS-22 Catalog number: 27939 Epoch time: 11041.67386513 Element set: 978 Inclination: 097.8609 deg RA of node: 261.6003 deg Eccentricity: 0.0014246 Arg of perigee: 029.5036 deg Mean anomaly: 330.6958 deg Mean motion: 14.63508440 rev/day Decay rate: 1.19e-06 rev/day^2 Epoch rev: 39383 Checksum: 319
Satellite: VO-52 Catalog number: 28650 Epoch time: 11041.63364255 Element set: 715 Inclination: 097.6600 deg RA of node: 090.3323 deg Eccentricity: 0.0026228 Arg of perigee: 214.4103 deg Mean anomaly: 145.5459 deg Mean motion: 14.81906357 rev/day Decay rate: 4.94e-06 rev/day^2 Epoch rev: 31200 Checksum: 275
Satellite: SO-67 Catalog number: 35870 Epoch time: 11041.78556800 Element set: 549 Inclination: 097.2996 deg RA of node: 089.1860 deg Eccentricity: 0.0003174 Arg of perigee: 012.2581 deg Mean anomaly: 121.5896 deg Mean motion: 15.21330905 rev/day Decay rate: 1.017e-05 rev/day^2 Epoch rev: 7772 Checksum: 310
Satellite: HO-68 Catalog number: 36122 Epoch time: 11041.83749678 Element set: 100 Inclination: 100.4342 deg RA of node: 104.4832 deg Eccentricity: 0.0007811 Arg of perigee: 149.4778 deg Mean anomaly: 210.6791 deg Mean motion: 13.16283933 rev/day Decay rate: -4.5e-07 rev/day^2 Epoch rev: 5561 Checksum: 284
/EX SB KEPS @ AMSAT $ORB11041.D Orbital Elements 11041.MICROS
HR AMSAT ORBITAL ELEMENTS FOR THE MICROSATS FROM WA5QGD FORT WORTH,TX February 10, 2011 Send Subscribe/unsubscribe to KEPS at http://www.amsat.org/mailman/listinfo/keps BID: ORB11041.D TO ALL RADIO AMATEURS BT
Satellite: UO-11 Catalog number: 14781 Epoch time: 11041.70536461 Element set: 466 Inclination: 098.0215 deg RA of node: 098.7126 deg Eccentricity: 0.0008873 Arg of perigee: 181.7058 deg Mean anomaly: 178.4120 deg Mean motion: 14.79885824 rev/day Decay rate: -2.37e-06 rev/day^2 Epoch rev: 44708 Checksum: 317
Satellite: AO-16 Catalog number: 20439 Epoch time: 11040.42660846 Element set: 0116 Inclination: 098.3673 deg RA of node: 354.4248 deg Eccentricity: 0.0010641 Arg of perigee: 178.3297 deg Mean anomaly: 181.7922 deg Mean motion: 14.31894287 rev/day Decay rate: 1.9e-07 rev/day^2 Epoch rev: 09933 Checksum: 312
Satellite: LO-19 Catalog number: 20442 Epoch time: 11040.87556435 Element set: 0025 Inclination: 098.3308 deg RA of node: 359.7064 deg Eccentricity: 0.0011855 Arg of perigee: 170.5282 deg Mean anomaly: 189.6130 deg Mean motion: 14.32122177 rev/day Decay rate: 2.2e-07 rev/day^2 Epoch rev: 09957 Checksum: 291
Satellite: AO-27 Catalog number: 22825 Epoch time: 11041.86594185 Element set: 745 Inclination: 098.5173 deg RA of node: 349.0181 deg Eccentricity: 0.0007689 Arg of perigee: 290.6285 deg Mean anomaly: 069.4089 deg Mean motion: 14.29325937 rev/day Decay rate: 4.1e-07 rev/day^2 Epoch rev: 90614 Checksum: 335
Satellite: IO-26 Catalog number: 22826 Epoch time: 11040.90855152 Element set: 483 Inclination: 098.5113 deg RA of node: 348.5989 deg Eccentricity: 0.0008236 Arg of perigee: 288.1551 deg Mean anomaly: 071.8732 deg Mean motion: 14.29585017 rev/day Decay rate: 1.0e-07 rev/day^2 Epoch rev: 90612 Checksum: 306
Satellite: GO-32 Catalog number: 25397 Epoch time: 11040.52090924 Element set: 0404 Inclination: 098.3202 deg RA of node: 039.9556 deg Eccentricity: 0.0000632 Arg of perigee: 338.0121 deg Mean anomaly: 022.1022 deg Mean motion: 14.23196442 rev/day Decay rate: 1.11e-06 rev/day^2 Epoch rev: 65380 Checksum: 246
Satellite: NO-44 Catalog number: 26931 Epoch time: 11041.76670533 Element set: 676 Inclination: 067.0531 deg RA of node: 309.2717 deg Eccentricity: 0.0006984 Arg of perigee: 271.8481 deg Mean anomaly: 088.1838 deg Mean motion: 14.29631691 rev/day Decay rate: -1.45e-06 rev/day^2 Epoch rev: 48885 Checksum: 333
Satellite: SO-50 Catalog number: 27607 Epoch time: 11041.33452382 Element set: 387 Inclination: 064.5593 deg RA of node: 353.1036 deg Eccentricity: 0.0058276 Arg of perigee: 351.0469 deg Mean anomaly: 008.9591 deg Mean motion: 14.71640941 rev/day Decay rate: 1.68e-06 rev/day^2 Epoch rev: 43742 Checksum: 305
Satellite: CO-55 Catalog number: 27844 Epoch time: 11040.57039350 Element set: 0042 Inclination: 098.7078 deg RA of node: 051.1190 deg Eccentricity: 0.0009322 Arg of perigee: 203.4202 deg Mean anomaly: 156.6554 deg Mean motion: 14.20766597 rev/day Decay rate: 5.1e-07 rev/day^2 Epoch rev: 39479 Checksum: 292
Satellite: CO-57 Catalog number: 27848 Epoch time: 11041.55076970 Element set: 989 Inclination: 098.7142 deg RA of node: 051.2335 deg Eccentricity: 0.0009263 Arg of perigee: 205.5872 deg Mean anomaly: 154.4863 deg Mean motion: 14.20552432 rev/day Decay rate: 4.8e-07 rev/day^2 Epoch rev: 39488 Checksum: 326
Satellite: AO-51 Catalog number: 28375 Epoch time: 11040.53284312 Element set: 0892 Inclination: 098.0831 deg RA of node: 025.7870 deg Eccentricity: 0.0084754 Arg of perigee: 096.7035 deg Mean anomaly: 264.3813 deg Mean motion: 14.40722787 rev/day Decay rate: 2.5e-07 rev/day^2 Epoch rev: 34768 Checksum: 315
Satellite: CP3 Catalog number: 31129 Epoch time: 11040.63225033 Element set: 0794 Inclination: 097.9121 deg RA of node: 072.1473 deg Eccentricity: 0.0101282 Arg of perigee: 216.7046 deg Mean anomaly: 142.7180 deg Mean motion: 14.52371508 rev/day Decay rate: -6.6e-07 rev/day^2 Epoch rev: 20232 Checksum: 253
Satellite: CO-65 Catalog number: 32785 Epoch time: 11040.66559756 Element set: 0911 Inclination: 097.8643 deg RA of node: 106.9183 deg Eccentricity: 0.0013965 Arg of perigee: 229.7677 deg Mean anomaly: 130.2324 deg Mean motion: 14.81820304 rev/day Decay rate: -2.0e-08 rev/day^2 Epoch rev: 15065 Checksum: 309
Satellite: KKS-1 Catalog number: 33493 Epoch time: 11041.72706401 Element set: 297 Inclination: 098.1071 deg RA of node: 168.6703 deg Eccentricity: 0.0021118 Arg of perigee: 090.5029 deg Mean anomaly: 269.8611 deg Mean motion: 14.81315254 rev/day Decay rate: 7.39e-06 rev/day^2 Epoch rev: 11079 Checksum: 284
Satellite: SOHLA-1 Catalog number: 33496 Epoch time: 11041.81673030 Element set: 330 Inclination: 098.0681 deg RA of node: 153.0221 deg Eccentricity: 0.0006847 Arg of perigee: 156.6864 deg Mean anomaly: 203.4674 deg Mean motion: 14.69554226 rev/day Decay rate: 4.9e-07 rev/day^2 Epoch rev: 10992 Checksum: 289
Satellite: TISAT-1 Catalog number: 36799 Epoch time: 11041.88193950 Element set: 571 Inclination: 098.1175 deg RA of node: 108.8201 deg Eccentricity: 0.0014784 Arg of perigee: 329.1496 deg Mean anomaly: 030.8835 deg Mean motion: 14.80310355 rev/day Decay rate: 4.34e-06 rev/day^2 Epoch rev: 3162 Checksum: 297
Satellite: STUDSAT Catalog number: 36801 Epoch time: 11040.79871606 Element set: 0139 Inclination: 098.1231 deg RA of node: 107.5816 deg Eccentricity: 0.0013559 Arg of perigee: 320.9356 deg Mean anomaly: 039.0874 deg Mean motion: 14.79990816 rev/day Decay rate: 1.143e-05 rev/day^2 Epoch rev: 03145 Checksum: 299
Satellite: RAX Catalog number: 37223 Epoch time: 11039.48940803 Element set: 0076 Inclination: 071.9753 deg RA of node: 322.7653 deg Eccentricity: 0.0020797 Arg of perigee: 171.1922 deg Mean anomaly: 188.9635 deg Mean motion: 14.77230853 rev/day Decay rate: 3.16e-06 rev/day^2 Epoch rev: 01188 Checksum: 305
Satellite: OOREOS Catalog number: 37224 Epoch time: 11031.44731873 Element set: 0071 Inclination: 071.9747 deg RA of node: 340.6006 deg Eccentricity: 0.0020047 Arg of perigee: 184.3247 deg Mean anomaly: 175.7744 deg Mean motion: 14.76886093 rev/day Decay rate: 1.23e-06 rev/day^2 Epoch rev: 01068 Checksum: 282
Satellite: NANOSALD Catalog number: 37225 Epoch time: 11039.51529623 Element set: 0027 Inclination: 071.9716 deg RA of node: 322.8473 deg Eccentricity: 0.0017765 Arg of perigee: 140.4752 deg Mean anomaly: 219.7749 deg Mean motion: 14.77960777 rev/day Decay rate: 3.3056e-04 rev/day^2 Epoch rev: 00298 Checksum: 321
Satellite: FAST1-2 Catalog number: 37227 Epoch time: 11041.43153630 Element set: 0075 Inclination: 071.9753 deg RA of node: 318.7141 deg Eccentricity: 0.0016999 Arg of perigee: 162.2837 deg Mean anomaly: 197.8952 deg Mean motion: 14.76390201 rev/day Decay rate: 1.44e-06 rev/day^2 Epoch rev: 01215 Checksum: 290
/EX SB KEPS @ AMSAT $ORB11041.W Orbital Elements 11041.WEATHER
HR AMSAT ORBITAL ELEMENTS FOR WEATHER SATELLITES FROM WA5QGD FORT WORTH,TX February 10, 2011 Send Subscribe/unsubscribe to KEPS at http://www.amsat.org/mailman/listinfo/keps BID: ORB11041.W TO ALL RADIO AMATEURS BT
Satellite: NOAA-10 Catalog number: 16969 Epoch time: 11040.70761785 Element set: 0392 Inclination: 098.6333 deg RA of node: 072.1450 deg Eccentricity: 0.0011541 Arg of perigee: 236.4206 deg Mean anomaly: 123.5873 deg Mean motion: 14.27442747 rev/day Decay rate: -7.3e-07 rev/day^2 Epoch rev: 26946 Checksum: 299
